[[{"header":{"parameterUnit":"m.s-1","parameterCategory":1,"la1":30.2991,"la2":30.254,"lo1":-89.0895,"lo2":-89.0444,"dy":0.0017,"dx":0.0017,"nx":28,"ny":28,"refTime":"2024-06-11T21:00:00:Z","depth":0,"parameterNumber":2,"parameterNumberName":"U-component_of_WINDS"},"data":[0,0,0,0,0,0,0,0,0,0,0,0,0,0,0,0,0,0,0,0,0,0,0,0,0,0,0,0,0,0,0,0,0,0,0,0,0,0,0,0,0,0,0,0,0,0,0,0,0,0,0,0,0,0,0,0,0,0,-0.5454,-0.5454,0,-0.5406,-0.5406,-0.5405,-0.5327,-0.5326,-0.5324,-0.5323,-0.5275,-0.5275,-0.5275,0,0,0,0,0,0,0,0,0,0,0,0,0,-0.5479,-0.5479,-0.5454,-0.5454,-0.5453,-0.5407,-0.5406,-0.5405,-0.5327,-0.5325,-0.5324,-0.5322,-0.5275,-0.5275,-0.5275,0,0,0,0,0,0,0,0,0,0,0,0,0,-0.5454,-0.5479,-0.5455,-0.5409,-0.5404,-0.5407,-0.5406,-0.5405,-0.5328,-0.5325,-0.5323,-0.5321,-0.5275,-0.5275,-0.5275,-0.532,0,0,-0.5276,-0.5276,0,0,0,0,0,0,0,0,-0.5455,-0.5453,-0.5416,-0.5412,-0.5407,-0.537,-0.5397,-0.5376,-0.5328,-0.5357,-0.5323,-0.532,-0.5309,-0.5306,-0.5302,-0.5317,-0.5315,-0.5276,-0.5276,-0.5276,-0.5276,0,0,0,0,0,0,0,-0.5457,-0.5455,-0.5435,-0.5416,-0.541,-0.5391,-0.5385,-0.5393,-0.5346,-0.5354,-0.5348,-0.5344,-0.5306,-0.5302,-0.53,-0.5315,-0.5276,-0.5276,-0.5276,-0.5276,-0.5364,-0.5366,0,0,0,0,0,0,-0.5466,-0.5457,-0.5437,-0.5434,-0.5426,-0.5392,-0.5385,-0.5384,-0.5345,-0.5337,-0.5345,-0.534,-0.5303,-0.53,-0.5298,-0.5348,-0.5276,-0.5276,-0.5276,-0.5362,-0.5365,-0.5367,0,0,0,0,0,0,-0.5467,-0.5465,-0.5439,-0.5444,-0.5439,-0.5394,-0.5393,-0.5384,-0.538,-0.5339,-0.533,-0.535,-0.5301,-0.5298,-0.5315,-0.5345,-0.5276,-0.5276,-0.5359,-0.5363,-0.5366,-0.5447,0,0,0,0,0,0,-0.5468,-0.5465,-0.5482,-0.5445,-0.5439,-0.5456,-0.5395,-0.5385,-0.5381,-0.5373,-0.5341,-0.5333,-0.5299,-0.5315,-0.5315,-0.5344,-0.5276,-0.5356,-0.5361,-0.5365,-0.5442,-0.5453,-0.5463,0,0,0,0,0,-0.5469,-0.5507,-0.5483,-0.5481,-0.5458,-0.5458,-0.5455,-0.5414,-0.5383,-0.54,-0.5373,-0.5334,-0.5341,-0.5317,-0.5317,-0.5346,-0.5354,-0.536,-0.5365,-0.5437,-0.5451,-0.5463,0,0,0,0,0,0,-0.5549,-0.5501,-0.5474,-0.5501,-0.5484,-0.5445,-0.5464,-0.543,-0.5422,-0.5416,-0.5366,-0.5359,-0.5383,-0.5366,-0.534,-0.5387,-0.5342,-0.5347,-0.5397,-0.541,-0.5421,-0.5425,-0.5276,0,0,0,0,0,-0.557,-0.5573,-0.5531,-0.5559,-0.5552,-0.551,-0.5508,-0.5478,-0.5459,-0.5452,-0.5426,-0.5409,-0.5407,-0.5408,-0.5404,-0.5438,-0.5431,-0.5458,-0.5469,-0.5478,-0.5483,-0.5501,-0.5513,-0.5384,-0.5384,-0.5384,0,0,-0.5613,-0.5587,-0.5592,-0.5575,-0.5558,-0.5563,-0.5504,-0.5512,-0.5516,-0.5453,-0.5467,-0.5448,-0.5426,-0.5452,-0.5462,-0.5439,-0.5517,-0.5484,-0.5492,-0.5492,-0.5507,-0.552,-0.5531,-0.5387,-0.5387,-0.5386,0,0,-0.5694,-0.5675,-0.5696,-0.568,-0.5656,-0.5627,-0.5633,-0.5598,-0.5583,-0.5596,-0.5549,-0.5553,-0.5551,-0.5537,-0.553,-0.5606,-0.5571,-0.5606,-0.5662,-0.568,-0.569,-0.5699,-0.5727,-0.5737,-0.5612,-0.5612,-0.5612,0,-0.5751,-0.5757,-0.5711,-0.5722,-0.5716,-0.5659,-0.568,-0.5667,-0.5643,-0.5641,-0.5614,-0.5611,-0.5592,-0.5614,-0.5633,-0.5629,-0.5634,-0.5611,-0.5692,-0.57,-0.5708,-0.5734,-0.5745,-0.5616,-0.5616,-0.5615,-0.5615,0,-0.5828,-0.5833,-0.5853,-0.5831,-0.5827,-0.5843,-0.5801,-0.5802,-0.5772,-0.5747,-0.5762,-0.5737,-0.5727,-0.573,-0.5701,-0.5749,-0.5735,-0.5701,-0.5655,-0.5726,-0.575,-0.5759,-0.5623,-0.5621,-0.562,-0.5619,0,0,-0.596,-0.5912,-0.592,-0.591,-0.5878,-0.5881,-0.5895,-0.5885,-0.5888,-0.5873,-0.5884,-0.5883,-0.5852,-0.5844,-0.5812,-0.5828,-0.5891,-0.5792,-0.5791,-0.5813,-0.5943,-0.597,-0.5982,-0.5867,-0.5868,-0.587,-0.5945,0,-0.6036,-0.6057,-0.6016,-0.6047,-0.6051,-0.5996,-0.6008,-0.599,-0.5967,-0.5967,-0.5941,-0.5942,-0.59,-0.5895,-0.5907,-0.5881,-0.5917,-0.5874,-0.5878,-0.5878,-0.5886,-0.5994,-0.6022,-0.6095,-0.5954,-0.5955,-0.5957,0,-0.6128,-0.6117,-0.6148,-0.6115,-0.6115,-0.6127,-0.6114,-0.6115,-0.6094,-0.6076,-0.6067,-0.603,-0.6042,-0.5997,-0.6012,-0.5985,-0.5983,-0.597,-0.5972,-0.5972,-0.5923,-0.5998,-0.6116,-0.6128,-0.5971,-0.597,-0.5969,0,-0.6222,-0.6215,-0.6233,-0.6226,-0.6187,-0.6197,-0.6181,-0.6157,-0.6154,-0.6143,-0.6141,-0.6132,-0.6127,-0.6121,-0.6084,-0.6054,-0.6104,-0.6056,-0.609,-0.6092,-0.6105,-0.6105,-0.6226,-0.6102,-0.6102,-0.6102,-0.6101,0,-0.6312,-0.6333,-0.6275,-0.6286,-0.6309,-0.6262,-0.6286,-0.6265,-0.6244,-0.6251,-0.6202,-0.6209,-0.6158,-0.616,-0.613,-0.6148,-0.6146,-0.6133,-0.6125,-0.6138,-0.614,-0.6137,-0.6132,-0.6104,-0.6104,-0.6103,-0.6103,0,-0.6422,-0.6383,-0.6399,-0.6361,-0.6352,-0.6371,-0.6338,-0.6347,-0.632,-0.6329,-0.6328,-0.6286,-0.6286,-0.6247,-0.6238,-0.6218,-0.625,-0.6232,-0.6257,-0.6252,-0.6289,-0.6287,-0.6414,-0.6429,-0.6295,-0.6296,-0.6297,0,-0.6482,-0.6498,-0.6461,-0.6462,-0.6448,-0.645,-0.6446,-0.64,-0.6398,-0.6375,-0.6388,-0.6383,-0.6377,-0.6379,-0.6348,-0.6342,-0.6324,-0.6369,-0.6323,-0.6336,-0.6326,-0.6327,-0.6328,-0.6379,-0.6381,-0.6383,-0.6384,0,-0.6594,-0.6574,-0.6571,-0.6561,-0.6557,-0.6547,-0.6534,-0.6537,-0.6487,-0.6488,-0.6486,-0.6482,-0.6473,-0.647,-0.6457,-0.6441,-0.6405,-0.6398,-0.6406,-0.642,-0.6435,-0.6429,-0.6285,-0.6396,-0.6395,-0.6394,-0.6393,-0.6393,-0.6682,-0.6693,-0.6669,-0.6667,-0.6652,-0.6641,-0.6648,-0.6621,-0.6619,-0.6608,-0.6581,-0.6584,-0.6563,-0.6542,-0.653,-0.6532,-0.651,-0.6521,-0.6524,-0.6528,-0.6536,-0.6433,-0.653,-0.6529,-0.6529,-0.6528,-0.6528,0,-0.6793,-0.6774,-0.6772,-0.6755,-0.6754,-0.6718,-0.6701,-0.6703,-0.6706,-0.6689,-0.6684,-0.6683,-0.6679,-0.6648,-0.664,-0.6648,-0.6632,-0.6648,-0.6648,-0.6645,-0.6556,-0.655,-0.6662,-0.6662,-0.6662,-0.6662,-0.6662,-0.6662,-0.685,-0.6867,-0.6845,-0.6854,-0.6836,-0.6838,-0.6832,-0.6822,-0.6808,-0.6809,-0.6805,-0.6784,-0.6762,-0.6752,-0.6747,-0.6738,-0.6739,-0.6761,-0.6747,-0.6664,-0.6651,-0.6639,-0.6634,-0.6761,-0.6762,-0.6836,-0.6837,-0.6837]},{"header":{"parameterUnit":"m.s-1","parameterCategory":1,"la1":30.2991,"la2":30.254,"lo1":-89.0895,"lo2":-89.0444,"dy":0.0017,"dx":0.0017,"nx":28,"ny":28,"refTime":"2024-06-11T21:00:00:Z","depth":0,"parameterNumber":3,"parameterNumberName":"V-component_of_WINDS"},"data":[0,0,0,0,0,0,0,0,0,0,0,0,0,0,0,0,0,0,0,0,0,0,0,0,0,0,0,0,0,0,0,0,0,0,0,0,0,0,0,0,0,0,0,0,0,0,0,0,0,0,0,0,0,0,0,0,0,0,-0.0887,-0.0887,0,-0.0906,-0.0906,-0.0907,-0.091,-0.091,-0.091,-0.091,-0.0929,-0.0929,-0.093,0,0,0,0,0,0,0,0,0,0,0,0,0,-0.0855,-0.0855,-0.0887,-0.0887,-0.0888,-0.0906,-0.0906,-0.0907,-0.091,-0.091,-0.091,-0.091,-0.0929,-0.0929,-0.093,0,0,0,0,0,0,0,0,0,0,0,0,0,-0.0871,-0.0856,-0.0887,-0.0892,-0.0892,-0.0906,-0.0906,-0.0907,-0.091,-0.091,-0.091,-0.091,-0.0928,-0.0929,-0.093,-0.094,0,0,-0.0933,-0.0934,0,0,0,0,0,0,0,0,-0.087,-0.0872,-0.0891,-0.0892,-0.0892,-0.0906,-0.0902,-0.0918,-0.0911,-0.0904,-0.091,-0.091,-0.0921,-0.0923,-0.0927,-0.0941,-0.0942,-0.0933,-0.0934,-0.0934,-0.0934,0,0,0,0,0,0,0,-0.0869,-0.0871,-0.0895,-0.0891,-0.0892,-0.0893,-0.0895,-0.0905,-0.0913,-0.0904,-0.0905,-0.0907,-0.0922,-0.0926,-0.0927,-0.0942,-0.0933,-0.0934,-0.0935,-0.0935,-0.0968,-0.0969,0,0,0,0,0,0,-0.0867,-0.087,-0.0894,-0.0895,-0.088,-0.0894,-0.0896,-0.0902,-0.0913,-0.0915,-0.0907,-0.0907,-0.0924,-0.0926,-0.0928,-0.0942,-0.0934,-0.0935,-0.0936,-0.0968,-0.0968,-0.0969,0,0,0,0,0,0,-0.0866,-0.0869,-0.0893,-0.0883,-0.0886,-0.0895,-0.0901,-0.0902,-0.0906,-0.0915,-0.0917,-0.091,-0.0924,-0.0927,-0.0938,-0.0943,-0.0935,-0.0936,-0.0968,-0.0968,-0.0969,-0.097,0,0,0,0,0,0,-0.0865,-0.0869,-0.0872,-0.0883,-0.0887,-0.0903,-0.0901,-0.0903,-0.0908,-0.0908,-0.0918,-0.092,-0.0924,-0.0936,-0.0939,-0.0944,-0.0937,-0.0967,-0.0968,-0.0968,-0.0969,-0.097,-0.0971,0,0,0,0,0,-0.0864,-0.0871,-0.0872,-0.0875,-0.0891,-0.0903,-0.0905,-0.091,-0.0908,-0.0913,-0.0919,-0.092,-0.0942,-0.0937,-0.094,-0.0946,-0.0967,-0.0968,-0.0968,-0.0969,-0.097,-0.0971,0,0,0,0,0,0,-0.086,-0.0873,-0.0874,-0.0885,-0.0893,-0.0904,-0.0909,-0.0911,-0.0919,-0.0919,-0.0925,-0.0927,-0.0938,-0.0943,-0.0938,-0.0957,-0.0954,-0.0956,-0.0954,-0.0955,-0.0956,-0.0955,-0.0938,0,0,0,0,0,-0.0861,-0.0869,-0.0879,-0.0888,-0.0892,-0.09,-0.0905,-0.0908,-0.0917,-0.092,-0.0927,-0.0935,-0.0944,-0.0949,-0.0958,-0.097,-0.0973,-0.0975,-0.0976,-0.0977,-0.0978,-0.0987,-0.0988,-0.0971,-0.0971,-0.0971,0,0,-0.0862,-0.087,-0.0874,-0.0888,-0.0894,-0.0903,-0.0903,-0.0911,-0.0918,-0.0921,-0.0933,-0.0938,-0.0948,-0.096,-0.0965,-0.0964,-0.0983,-0.0978,-0.0978,-0.0979,-0.0987,-0.0989,-0.099,-0.0972,-0.0972,-0.0971,0,0,-0.0868,-0.0875,-0.0883,-0.089,-0.0901,-0.0906,-0.0908,-0.0919,-0.0923,-0.0935,-0.0938,-0.0946,-0.0961,-0.0968,-0.0974,-0.0985,-0.0987,-0.0988,-0.0992,-0.1,-0.1002,-0.1003,-0.1009,-0.101,-0.0989,-0.0989,-0.0989,0,-0.0868,-0.0882,-0.0887,-0.0897,-0.0903,-0.0907,-0.0917,-0.0923,-0.0936,-0.094,-0.0939,-0.0959,-0.0965,-0.098,-0.0983,-0.0987,-0.0991,-0.0987,-0.1001,-0.1002,-0.1004,-0.1009,-0.1011,-0.0989,-0.0989,-0.0989,-0.0989,0,-0.0882,-0.0891,-0.0897,-0.091,-0.0917,-0.0927,-0.0934,-0.0941,-0.0944,-0.095,-0.0963,-0.0971,-0.0982,-0.0986,-0.0988,-0.1001,-0.1001,-0.1,-0.0997,-0.1005,-0.1011,-0.1013,-0.0989,-0.0989,-0.0989,-0.0989,0,0,-0.0885,-0.0903,-0.0905,-0.0912,-0.0925,-0.0932,-0.0942,-0.0954,-0.096,-0.0969,-0.0978,-0.0992,-0.0992,-0.0999,-0.1002,-0.1009,-0.102,-0.1008,-0.1009,-0.1011,-0.1037,-0.1038,-0.104,-0.1021,-0.1022,-0.1022,-0.1037,0,-0.0894,-0.0913,-0.0919,-0.0935,-0.0945,-0.095,-0.0959,-0.0968,-0.0974,-0.0983,-0.099,-0.1,-0.0998,-0.1003,-0.101,-0.1017,-0.1025,-0.1016,-0.1031,-0.1031,-0.1029,-0.1043,-0.1043,-0.1057,-0.1039,-0.1039,-0.1039,0,-0.0907,-0.0917,-0.0934,-0.0948,-0.0952,-0.096,-0.0972,-0.0981,-0.0992,-0.0996,-0.1004,-0.1008,-0.1019,-0.1016,-0.1033,-0.1026,-0.1033,-0.1037,-0.1038,-0.104,-0.1036,-0.1046,-0.1061,-0.1064,-0.1042,-0.1042,-0.1042,0,-0.0909,-0.0927,-0.0941,-0.0946,-0.0962,-0.0968,-0.0974,-0.0985,-0.0992,-0.1003,-0.1008,-0.102,-0.1026,-0.1036,-0.1043,-0.1039,-0.106,-0.1056,-0.1064,-0.1064,-0.1069,-0.1068,-0.1086,-0.1071,-0.1071,-0.1071,-0.1071,0,-0.0919,-0.0929,-0.0942,-0.095,-0.0963,-0.097,-0.0983,-0.099,-0.1,-0.101,-0.1014,-0.1023,-0.1032,-0.1042,-0.1048,-0.1062,-0.1065,-0.1069,-0.107,-0.1069,-0.1069,-0.1074,-0.1074,-0.1071,-0.1071,-0.1071,-0.1071,0,-0.0924,-0.0933,-0.0948,-0.0962,-0.0966,-0.0974,-0.0987,-0.0995,-0.1002,-0.1015,-0.1018,-0.1029,-0.1042,-0.105,-0.1066,-0.107,-0.1086,-0.1087,-0.1083,-0.1084,-0.1092,-0.1092,-0.1114,-0.1118,-0.11,-0.11,-0.11,0,-0.093,-0.0938,-0.0954,-0.0962,-0.0969,-0.098,-0.0988,-0.0997,-0.1005,-0.1019,-0.1026,-0.104,-0.1051,-0.1072,-0.1081,-0.1094,-0.1096,-0.1103,-0.1098,-0.1097,-0.1098,-0.1098,-0.11,-0.1104,-0.1104,-0.1104,-0.1104,0,-0.094,-0.0944,-0.0956,-0.097,-0.098,-0.0991,-0.1001,-0.1007,-0.1018,-0.1027,-0.1041,-0.105,-0.1068,-0.1081,-0.1096,-0.1103,-0.1106,-0.1106,-0.1109,-0.1108,-0.1106,-0.1109,-0.1087,-0.1106,-0.1105,-0.1105,-0.1105,-0.1105,-0.0946,-0.0955,-0.0968,-0.0981,-0.0991,-0.1002,-0.1011,-0.102,-0.1032,-0.1047,-0.1052,-0.1067,-0.1079,-0.1099,-0.1107,-0.1119,-0.1118,-0.1121,-0.1123,-0.1124,-0.1125,-0.1104,-0.1121,-0.1121,-0.1121,-0.1121,-0.1121,0,-0.0957,-0.0967,-0.0979,-0.0995,-0.1006,-0.1009,-0.1022,-0.1031,-0.1044,-0.1056,-0.1068,-0.1085,-0.1099,-0.111,-0.1125,-0.1133,-0.1135,-0.1136,-0.1136,-0.1138,-0.1124,-0.1121,-0.1135,-0.1135,-0.1135,-0.1135,-0.1135,-0.1135,-0.0965,-0.098,-0.0987,-0.1007,-0.1017,-0.1032,-0.104,-0.105,-0.106,-0.1079,-0.1091,-0.1099,-0.1111,-0.1127,-0.114,-0.1143,-0.1149,-0.1151,-0.1154,-0.1141,-0.1139,-0.1138,-0.1135,-0.1152,-0.1152,-0.1168,-0.1168,-0.1168]}]]